owner,sensor,date,latitude,longitude,vertical_datum,sea_water_practical_salinity,qcFlag 
ENP,ioos.station.NOAA.NDBC:LBRF1:1,2016-08-01T00:00:00Z,25.4840,-81.1330,1.5,11.97,1111122 
ENP,ioos.station.NOAA.NDBC:LBRF1:1,2016-08-01T01:00:00Z,25.4840,-81.1330,1.5,8.3,11111222 
ENP,ioos.station.NOAA.NDBC:LBRF1:1,2016-08-01T02:00:00Z,25.4840,-81.1330,1.5,6.13,1111122 
ENP,ioos.station.NOAA.NDBC:LBRF1:1,2016-08-01T03:00:00Z,25.4840,-81.1330,1.5,5.37,1111122 
ENP,ioos.station.NOAA.NDBC:LBRF1:1,2016-08-01T05:00:00Z,25.4840,-81.1330,1.5,6.2,11111222 
ENP,ioos.station.NOAA.NDBC:LBRF1:1,2016-08-01T06:00:00Z,25.4840,-81.1330,1.5,12.75,1111122 
ENP,ioos.station.NOAA.NDBC:LBRF1:1,2016-08-01T07:00:00Z,25.4840,-81.1330,1.5,18.36,1111122 
ENP,ioos.station.NOAA.NDBC:LBRF1:1,2016-08-01T08:00:00Z,25.4840,-81.1330,1.5,20.13,1111122 
ENP,ioos.station.NOAA.NDBC:LBRF1:1,2016-08-01T09:00:00Z,25.4840,-81.1330,1.5,20.3,11111222 
ENP,ioos.station.NOAA.NDBC:LBRF1:1,2016-08-01T10:00:00Z,25.4840,-81.1330,1.5,15.26,1111122 
ENP,ioos.station.NOAA.NDBC:LBRF1:1,2016-08-01T11:00:00Z,25.4840,-81.1330,1.5,12.04,1111122 
ENP,ioos.station.NOAA.NDBC:LBRF1:1,2016-08-01T12:00:00Z,25.4840,-81.1330,1.5,7.82,1111122 
ENP,ioos.station.NOAA.NDBC:LBRF1:1,2016-08-01T13:00:00Z,25.4840,-81.1330,1.5,5.69,1111122 
ENP,ioos.station.NOAA.NDBC:LBRF1:1,2016-08-01T14:00:00Z,25.4840,-81.1330,1.5,5.1,1111122 
ENP,ioos.station.NOAA.NDBC:LBRF1:1,2016-08-01T15:00:00Z,25.4840,-81.1330,1.5,5.1,1111122 
ENP,ioos.station.NOAA.NDBC:LBRF1:1,2016-08-01T16:00:00Z,25.4840,-81.1330,1.5,10.23,1111122 
ENP,ioos.station.NOAA.NDBC:LBRF1:1,2016-08-01T17:00:00Z,25.4840,-81.1330,1.5,15.26,1111122 
ENP,ioos.station.NOAA.NDBC:LBRF1:1,2016-08-01T18:00:00Z,25.4840,-81.1330,1.5,20.3,11111222 
ENP,ioos.station.NOAA.NDBC:LBRF1:1,2016-08-01T19:00:00Z,25.4840,-81.1330,1.5,23.11,1111122 
ENP,ioos.station.NOAA.NDBC:LBRF1:1,2016-08-01T20:00:00Z,25.4840,-81.1330,1.5,24.09,1111122 
ENP,ioos.station.NOAA.NDBC:LBRF1:1,2016-08-01T21:00:00Z,25.4840,-81.1330,1.5,24.23,1111122 
ENP,ioos.station.NOAA.NDBC:LBRF1:1,2016-08-01T22:00:00Z,25.4840,-81.1330,1.5,22.13,1111122 
ENP,ioos.station.NOAA.NDBC:LBRF1:1,2016-08-01T23:00:00Z,25.4840,-81.1330,1.5,19.52,1111122 
ENP,ioos.station.NOAA.NDBC:LBRF1:1,2016-08-02T00:00:00Z,25.4840,-81.1330,1.5,14.13,1111122 
ENP,ioos.station.NOAA.NDBC:LBRF1:1,2016-08-02T02:00:00Z,25.4840,-81.1330,1.5,5.9,11111222 
ENP,ioos.station.NOAA.NDBC:LBRF1:1,2016-08-02T03:00:00Z,25.4840,-81.1330,1.5,5.19,1111122 
ENP,ioos.station.NOAA.NDBC:LBRF1:1,2016-08-02T05:00:00Z,25.4840,-81.1330,1.5,4.8,11111222 
ENP,ioos.station.NOAA.NDBC:LBRF1:1,2016-08-02T06:00:00Z,25.4840,-81.1330,1.5,5.52,1111122 
ENP,ioos.station.NOAA.NDBC:LBRF1:1,2016-08-02T07:00:00Z,25.4840,-81.1330,1.5,14.2,1111122 
ENP,ioos.station.NOAA.NDBC:LBRF1:1,2016-08-02T08:00:00Z,25.4840,-81.1330,1.5,18.15,1111122 
ENP,ioos.station.NOAA.NDBC:LBRF1:1,2016-08-02T09:00:00Z,25.4840,-81.1330,1.5,19.4,11111222 
ENP,ioos.station.NOAA.NDBC:LBRF1:1,2016-08-02T10:00:00Z,25.4840,-81.1330,1.5,17.61,1111122 
ENP,ioos.station.NOAA.NDBC:LBRF1:1,2016-08-02T11:00:00Z,25.4840,-81.1330,1.5,12.6,11111222 
ENP,ioos.station.NOAA.NDBC:LBRF1:1,2016-08-02T12:00:00Z,25.4840,-81.1330,1.5,7.87,1111122 
ENP,ioos.station.NOAA.NDBC:LBRF1:1,2016-08-02T13:00:00Z,25.4840,-81.1330,1.5,5.59,1111122 
ENP,ioos.station.NOAA.NDBC:LBRF1:1,2016-08-02T14:00:00Z,25.4840,-81.1330,1.5,4.82,1111122 
ENP,ioos.station.NOAA.NDBC:LBRF1:1,2016-08-02T15:00:00Z,25.4840,-81.1330,1.5,4.54,1111122 
ENP,ioos.station.NOAA.NDBC:LBRF1:1,2016-08-02T16:00:00Z,25.4840,-81.1330,1.5,4.78,1111122 
ENP,ioos.station.NOAA.NDBC:LBRF1:1,2016-08-02T17:00:00Z,25.4840,-81.1330,1.5,10.2,11111222 
ENP,ioos.station.NOAA.NDBC:LBRF1:1,2016-08-02T18:00:00Z,25.4840,-81.1330,1.5,18.15,1111122 
ENP,ioos.station.NOAA.NDBC:LBRF1:1,2016-08-02T19:00:00Z,25.4840,-81.1330,1.5,21.93,1111122 
ENP,ioos.station.NOAA.NDBC:LBRF1:1,2016-08-02T20:00:00Z,25.4840,-81.1330,1.5,23.39,1111122 
ENP,ioos.station.NOAA.NDBC:LBRF1:1,2016-08-02T21:00:00Z,25.4840,-81.1330,1.5,23.95,1111122 
ENP,ioos.station.NOAA.NDBC:LBRF1:1,2016-08-02T22:00:00Z,25.4840,-81.1330,1.5,23.81,1111122 
ENP,ioos.station.NOAA.NDBC:LBRF1:1,2016-08-02T23:00:00Z,25.4840,-81.1330,1.5,21.79,1111122 
ENP,ioos.station.NOAA.NDBC:LBRF1:1,2016-08-03T00:00:00Z,25.4840,-81.1330,1.5,19.86,1111122 
ENP,ioos.station.NOAA.NDBC:LBRF1:1,2016-08-03T02:00:00Z,25.4840,-81.1330,1.5,9.1,11111222 
ENP,ioos.station.NOAA.NDBC:LBRF1:1,2016-08-03T03:00:00Z,25.4840,-81.1330,1.5,6.16,1111122 
ENP,ioos.station.NOAA.NDBC:LBRF1:1,2016-08-03T05:00:00Z,25.4840,-81.1330,1.5,4.9,11111222 
ENP,ioos.station.NOAA.NDBC:LBRF1:1,2016-08-03T06:00:00Z,25.4840,-81.1330,1.5,5.05,1111122 
ENP,ioos.station.NOAA.NDBC:LBRF1:1,2016-08-03T07:00:00Z,25.4840,-81.1330,1.5,8.13,1111122 
ENP,ioos.station.NOAA.NDBC:LBRF1:1,2016-08-03T08:00:00Z,25.4840,-81.1330,1.5,16.0,1111122 
ENP,ioos.station.NOAA.NDBC:LBRF1:1,2016-08-03T09:00:00Z,25.4840,-81.1330,1.5,18.4,11111222 
ENP,ioos.station.NOAA.NDBC:LBRF1:1,2016-08-03T10:00:00Z,25.4840,-81.1330,1.5,18.97,1111122 
ENP,ioos.station.NOAA.NDBC:LBRF1:1,2016-08-03T11:00:00Z,25.4840,-81.1330,1.5,20.61,1111122 
ENP,ioos.station.NOAA.NDBC:LBRF1:1,2016-08-03T12:00:00Z,25.4840,-81.1330,1.5,15.73,1111122 
ENP,ioos.station.NOAA.NDBC:LBRF1:1,2016-08-03T13:00:00Z,25.4840,-81.1330,1.5,11.32,1111122 
ENP,ioos.station.NOAA.NDBC:LBRF1:1,2016-08-03T14:00:00Z,25.4840,-81.1330,1.5,7.19,1111122 
ENP,ioos.station.NOAA.NDBC:LBRF1:1,2016-08-03T15:00:00Z,25.4840,-81.1330,1.5,5.7,1111122 
ENP,ioos.station.NOAA.NDBC:LBRF1:1,2016-08-03T16:00:00Z,25.4840,-81.1330,1.5,5.54,1111122 
ENP,ioos.station.NOAA.NDBC:LBRF1:1,2016-08-03T17:00:00Z,25.4840,-81.1330,1.5,9.78,1111122 
ENP,ioos.station.NOAA.NDBC:LBRF1:1,2016-08-03T18:00:00Z,25.4840,-81.1330,1.5,14.93,1111122 
ENP,ioos.station.NOAA.NDBC:LBRF1:1,2016-08-03T19:00:00Z,25.4840,-81.1330,1.5,20.0,11111222 
ENP,ioos.station.NOAA.NDBC:LBRF1:1,2016-08-03T20:00:00Z,25.4840,-81.1330,1.5,22.8,11111222 
ENP,ioos.station.NOAA.NDBC:LBRF1:1,2016-08-03T21:00:00Z,25.4840,-81.1330,1.5,23.6,11111222 
ENP,ioos.station.NOAA.NDBC:LBRF1:1,2016-08-03T22:00:00Z,25.4840,-81.1330,1.5,24.0,11111222 
ENP,ioos.station.NOAA.NDBC:LBRF1:1,2016-08-03T23:00:00Z,25.4840,-81.1330,1.5,23.8,11111222 
ENP,ioos.station.NOAA.NDBC:LBRF1:1,2016-08-04T00:00:00Z,25.4840,-81.1330,1.5,21.7,11111222 
ENP,ioos.station.NOAA.NDBC:LBRF1:1,2016-08-04T02:00:00Z,25.4840,-81.1330,1.5,14.3,11111222 
ENP,ioos.station.NOAA.NDBC:LBRF1:1,2016-08-04T03:00:00Z,25.4840,-81.1330,1.5,9.7,11111222 
ENP,ioos.station.NOAA.NDBC:LBRF1:1,2016-08-04T05:00:00Z,25.4840,-81.1330,1.5,6.1,11111222 
ENP,ioos.station.NOAA.NDBC:LBRF1:1,2016-08-04T06:00:00Z,25.4840,-81.1330,1.5,6.0,11111222 
ENP,ioos.station.NOAA.NDBC:LBRF1:1,2016-08-04T07:00:00Z,25.4840,-81.1330,1.5,7.2,11111222 
ENP,ioos.station.NOAA.NDBC:LBRF1:1,2016-08-04T08:00:00Z,25.4840,-81.1330,1.5,14.2,11111222 
ENP,ioos.station.NOAA.NDBC:LBRF1:1,2016-08-04T09:00:00Z,25.4840,-81.1330,1.5,19.0,11111222 
ENP,ioos.station.NOAA.NDBC:LBRF1:1,2016-08-04T10:00:00Z,25.4840,-81.1330,1.5,20.3,11111222 
ENP,ioos.station.NOAA.NDBC:LBRF1:1,2016-08-04T11:00:00Z,25.4840,-81.1330,1.5,20.7,11111222 
ENP,ioos.station.NOAA.NDBC:LBRF1:1,2016-08-04T12:00:00Z,25.4840,-81.1330,1.5,18.2,11111222 
ENP,ioos.station.NOAA.NDBC:LBRF1:1,2016-08-04T13:00:00Z,25.4840,-81.1330,1.5,15.3,11111222 
ENP,ioos.station.NOAA.NDBC:LBRF1:1,2016-08-04T14:00:00Z,25.4840,-81.1330,1.5,9.9,11111222 
ENP,ioos.station.NOAA.NDBC:LBRF1:1,2016-08-04T15:00:00Z,25.4840,-81.1330,1.5,6.8,11111222 
ENP,ioos.station.NOAA.NDBC:LBRF1:1,2016-08-04T16:00:00Z,25.4840,-81.1330,1.5,5.7,11111222 
ENP,ioos.station.NOAA.NDBC:LBRF1:1,2016-08-04T17:00:00Z,25.4840,-81.1330,1.5,5.7,11111222 
ENP,ioos.station.NOAA.NDBC:LBRF1:1,2016-08-04T18:00:00Z,25.4840,-81.1330,1.5,9.1,11111222 
ENP,ioos.station.NOAA.NDBC:LBRF1:1,2016-08-04T19:00:00Z,25.4840,-81.1330,1.5,16.9,11111222 
ENP,ioos.station.NOAA.NDBC:LBRF1:1,2016-08-04T20:00:00Z,25.4840,-81.1330,1.5,20.4,11111222 
ENP,ioos.station.NOAA.NDBC:LBRF1:1,2016-08-04T21:00:00Z,25.4840,-81.1330,1.5,22.7,11111222 
ENP,ioos.station.NOAA.NDBC:LBRF1:1,2016-08-04T22:00:00Z,25.4840,-81.1330,1.5,23.6,11111222 
ENP,ioos.station.NOAA.NDBC:LBRF1:1,2016-08-04T23:00:00Z,25.4840,-81.1330,1.5,24.0,11111222 
ENP,ioos.station.NOAA.NDBC:LBRF1:1,2016-08-05T00:00:00Z,25.4840,-81.1330,1.5,23.6,11111222 
ENP,ioos.station.NOAA.NDBC:LBRF1:1,2016-08-05T02:00:00Z,25.4840,-81.1330,1.5,18.4,11111222 
ENP,ioos.station.NOAA.NDBC:LBRF1:1,2016-08-05T03:00:00Z,25.4840,-81.1330,1.5,13.7,11111222 
ENP,ioos.station.NOAA.NDBC:LBRF1:1,2016-08-05T05:00:00Z,25.4840,-81.1330,1.5,7.5,11111222 
ENP,ioos.station.NOAA.NDBC:LBRF1:1,2016-08-05T06:00:00Z,25.4840,-81.1330,1.5,7.0,11111222 
ENP,ioos.station.NOAA.NDBC:LBRF1:1,2016-08-05T07:00:00Z,25.4840,-81.1330,1.5,7.4,11111222 
ENP,ioos.station.NOAA.NDBC:LBRF1:1,2016-08-05T08:00:00Z,25.4840,-81.1330,1.5,12.1,11111222 
ENP,ioos.station.NOAA.NDBC:LBRF1:1,2016-08-05T09:00:00Z,25.4840,-81.1330,1.5,18.4,11111222 
ENP,ioos.station.NOAA.NDBC:LBRF1:1,2016-08-05T10:00:00Z,25.4840,-81.1330,1.5,20.8,11111222 
ENP,ioos.station.NOAA.NDBC:LBRF1:1,2016-08-05T11:00:00Z,25.4840,-81.1330,1.5,21.4,11111222 
ENP,ioos.station.NOAA.NDBC:LBRF1:1,2016-08-05T13:00:00Z,25.4840,-81.1330,1.5,18.5,11111222 
ENP,ioos.station.NOAA.NDBC:LBRF1:1,2016-08-05T14:00:00Z,25.4840,-81.1330,1.5,14.3,11111222 
ENP,ioos.station.NOAA.NDBC:LBRF1:1,2016-08-05T15:00:00Z,25.4840,-81.1330,1.5,9.5,11111222 
ENP,ioos.station.NOAA.NDBC:LBRF1:1,2016-08-05T16:00:00Z,25.4840,-81.1330,1.5,7.0,11111222 
ENP,ioos.station.NOAA.NDBC:LBRF1:1,2016-08-05T17:00:00Z,25.4840,-81.1330,1.5,6.4,11111222 
ENP,ioos.station.NOAA.NDBC:LBRF1:1,2016-08-05T18:00:00Z,25.4840,-81.1330,1.5,6.6,11111222 
ENP,ioos.station.NOAA.NDBC:LBRF1:1,2016-08-05T19:00:00Z,25.4840,-81.1330,1.5,11.52,1111122 
ENP,ioos.station.NOAA.NDBC:LBRF1:1,2016-08-05T20:00:00Z,25.4840,-81.1330,1.5,18.22,1111122 
ENP,ioos.station.NOAA.NDBC:LBRF1:1,2016-08-05T21:00:00Z,25.4840,-81.1330,1.5,20.41,1111122 
ENP,ioos.station.NOAA.NDBC:LBRF1:1,2016-08-05T22:00:00Z,25.4840,-81.1330,1.5,21.93,1111122 
ENP,ioos.station.NOAA.NDBC:LBRF1:1,2016-08-05T23:00:00Z,25.4840,-81.1330,1.5,22.48,1111122 
ENP,ioos.station.NOAA.NDBC:LBRF1:1,2016-08-06T06:00:00Z,25.4840,-81.1330,1.5,6.69,1111122 
ENP,ioos.station.NOAA.NDBC:LBRF1:1,2016-08-06T17:00:00Z,25.4840,-81.1330,1.5,5.4,11111222 
ENP,ioos.station.NOAA.NDBC:LBRF1:1,2016-08-06T18:00:00Z,25.4840,-81.1330,1.5,5.05,1111122 
ENP,ioos.station.NOAA.NDBC:LBRF1:1,2016-08-06T19:00:00Z,25.4840,-81.1330,1.5,5.02,1111122 
ENP,ioos.station.NOAA.NDBC:LBRF1:1,2016-08-06T20:00:00Z,25.4840,-81.1330,1.5,6.59,1111122 
ENP,ioos.station.NOAA.NDBC:LBRF1:1,2016-08-06T21:00:00Z,25.4840,-81.1330,1.5,15.46,1111122 
ENP,ioos.station.NOAA.NDBC:LBRF1:1,2016-08-06T22:00:00Z,25.4840,-81.1330,1.5,19.38,1111122 
ENP,ioos.station.NOAA.NDBC:LBRF1:1,2016-08-06T23:00:00Z,25.4840,-81.1330,1.5,20.41,1111122 
ENP,ioos.station.NOAA.NDBC:LBRF1:1,2016-08-07T00:00:00Z,25.4840,-81.1330,1.5,20.89,1111122 
ENP,ioos.station.NOAA.NDBC:LBRF1:1,2016-08-07T02:00:00Z,25.4840,-81.1330,1.5,18.2,11111222 
ENP,ioos.station.NOAA.NDBC:LBRF1:1,2016-08-07T03:00:00Z,25.4840,-81.1330,1.5,13.87,1111122 
ENP,ioos.station.NOAA.NDBC:LBRF1:1,2016-08-07T05:00:00Z,25.4840,-81.1330,1.5,5.8,11111222 
ENP,ioos.station.NOAA.NDBC:LBRF1:1,2016-08-07T06:00:00Z,25.4840,-81.1330,1.5,5.31,1111122 
ENP,ioos.station.NOAA.NDBC:LBRF1:1,2016-08-07T07:00:00Z,25.4840,-81.1330,1.5,5.09,1111122 
ENP,ioos.station.NOAA.NDBC:LBRF1:1,2016-08-07T08:00:00Z,25.4840,-81.1330,1.5,5.13,1111122 
ENP,ioos.station.NOAA.NDBC:LBRF1:1,2016-08-07T09:00:00Z,25.4840,-81.1330,1.5,8.1,11111222 
ENP,ioos.station.NOAA.NDBC:LBRF1:1,2016-08-07T10:00:00Z,25.4840,-81.1330,1.5,14.27,1111122 
ENP,ioos.station.NOAA.NDBC:LBRF1:1,2016-08-07T11:00:00Z,25.4840,-81.1330,1.5,17.75,1111122 
ENP,ioos.station.NOAA.NDBC:LBRF1:1,2016-08-07T12:00:00Z,25.4840,-81.1330,1.5,18.83,1111122 
ENP,ioos.station.NOAA.NDBC:LBRF1:1,2016-08-07T13:00:00Z,25.4840,-81.1330,1.5,18.97,1111122 
ENP,ioos.station.NOAA.NDBC:LBRF1:1,2016-08-07T14:00:00Z,25.4840,-81.1330,1.5,13.8,1111122 
ENP,ioos.station.NOAA.NDBC:LBRF1:1,2016-08-07T15:00:00Z,25.4840,-81.1330,1.5,11.06,1111122 
ENP,ioos.station.NOAA.NDBC:LBRF1:1,2016-08-07T16:00:00Z,25.4840,-81.1330,1.5,6.64,1111122 
ENP,ioos.station.NOAA.NDBC:LBRF1:1,2016-08-07T17:00:00Z,25.4840,-81.1330,1.5,5.43,1111122 
ENP,ioos.station.NOAA.NDBC:LBRF1:1,2016-08-07T18:00:00Z,25.4840,-81.1330,1.5,4.9,1111122 
ENP,ioos.station.NOAA.NDBC:LBRF1:1,2016-08-07T19:00:00Z,25.4840,-81.1330,1.5,4.73,1111122 
ENP,ioos.station.NOAA.NDBC:LBRF1:1,2016-08-07T20:00:00Z,25.4840,-81.1330,1.5,4.85,1111122 
ENP,ioos.station.NOAA.NDBC:LBRF1:1,2016-08-07T21:00:00Z,25.4840,-81.1330,1.5,8.43,1111122 
ENP,ioos.station.NOAA.NDBC:LBRF1:1,2016-08-07T22:00:00Z,25.4840,-81.1330,1.5,14.0,1111122 
ENP,ioos.station.NOAA.NDBC:LBRF1:1,2016-08-07T23:00:00Z,25.4840,-81.1330,1.5,17.27,1111122 
ENP,ioos.station.NOAA.NDBC:LBRF1:1,2016-08-08T00:00:00Z,25.4840,-81.1330,1.5,18.36,1111122 
ENP,ioos.station.NOAA.NDBC:LBRF1:1,2016-08-08T01:00:00Z,25.4840,-81.1330,1.5,18.2,11111222 
ENP,ioos.station.NOAA.NDBC:LBRF1:1,2016-08-08T02:00:00Z,25.4840,-81.1330,1.5,14.3,11111222 
ENP,ioos.station.NOAA.NDBC:LBRF1:1,2016-08-08T03:00:00Z,25.4840,-81.1330,1.5,10.68,1111122 
ENP,ioos.station.NOAA.NDBC:LBRF1:1,2016-08-08T04:00:00Z,25.4840,-81.1330,1.5,6.42,1111122 
ENP,ioos.station.NOAA.NDBC:LBRF1:1,2016-08-08T05:00:00Z,25.4840,-81.1330,1.5,5.1,11111222 
ENP,ioos.station.NOAA.NDBC:LBRF1:1,2016-08-08T06:00:00Z,25.4840,-81.1330,1.5,4.61,1111122 
ENP,ioos.station.NOAA.NDBC:LBRF1:1,2016-08-08T07:00:00Z,25.4840,-81.1330,1.5,4.43,1111122 
ENP,ioos.station.NOAA.NDBC:LBRF1:1,2016-08-08T08:00:00Z,25.4840,-81.1330,1.5,4.37,1111122 
ENP,ioos.station.NOAA.NDBC:LBRF1:1,2016-08-08T09:00:00Z,25.4840,-81.1330,1.5,4.4,11111222 
ENP,ioos.station.NOAA.NDBC:LBRF1:1,2016-08-08T10:00:00Z,25.4840,-81.1330,1.5,6.36,1111122 
ENP,ioos.station.NOAA.NDBC:LBRF1:1,2016-08-08T11:00:00Z,25.4840,-81.1330,1.5,11.32,1111122 
ENP,ioos.station.NOAA.NDBC:LBRF1:1,2016-08-08T12:00:00Z,25.4840,-81.1330,1.5,14.33,1111122 
ENP,ioos.station.NOAA.NDBC:LBRF1:1,2016-08-08T13:00:00Z,25.4840,-81.1330,1.5,15.13,1111122 
ENP,ioos.station.NOAA.NDBC:LBRF1:1,2016-08-08T14:00:00Z,25.4840,-81.1330,1.5,11.0,1111122 
ENP,ioos.station.NOAA.NDBC:LBRF1:1,2016-08-08T15:00:00Z,25.4840,-81.1330,1.5,7.78,1111122 
ENP,ioos.station.NOAA.NDBC:LBRF1:1,2016-08-08T16:00:00Z,25.4840,-81.1330,1.5,5.38,1111122 
ENP,ioos.station.NOAA.NDBC:LBRF1:1,2016-08-08T17:00:00Z,25.4840,-81.1330,1.5,4.74,1111122 
ENP,ioos.station.NOAA.NDBC:LBRF1:1,2016-08-08T18:00:00Z,25.4840,-81.1330,1.5,4.46,1111122 
ENP,ioos.station.NOAA.NDBC:LBRF1:1,2016-08-08T19:00:00Z,25.4840,-81.1330,1.5,4.18,1111122 
ENP,ioos.station.NOAA.NDBC:LBRF1:1,2016-08-08T20:00:00Z,25.4840,-81.1330,1.5,4.07,1111122 
ENP,ioos.station.NOAA.NDBC:LBRF1:1,2016-08-08T21:00:00Z,25.4840,-81.1330,1.5,4.09,1111122 
ENP,ioos.station.NOAA.NDBC:LBRF1:1,2016-08-08T22:00:00Z,25.4840,-81.1330,1.5,5.12,1111122 
ENP,ioos.station.NOAA.NDBC:LBRF1:1,2016-08-08T23:00:00Z,25.4840,-81.1330,1.5,8.58,1111122 
ENP,ioos.station.NOAA.NDBC:LBRF1:1,2016-08-09T00:00:00Z,25.4840,-81.1330,1.5,10.23,1111122 
ENP,ioos.station.NOAA.NDBC:LBRF1:1,2016-08-09T02:00:00Z,25.4840,-81.1330,1.5,7.5,11111222 
ENP,ioos.station.NOAA.NDBC:LBRF1:1,2016-08-09T03:00:00Z,25.4840,-81.1330,1.5,5.52,1111122 
ENP,ioos.station.NOAA.NDBC:LBRF1:1,2016-08-09T04:00:00Z,25.4840,-81.1330,1.5,4.4,11111222 
ENP,ioos.station.NOAA.NDBC:LBRF1:1,2016-08-09T05:00:00Z,25.4840,-81.1330,1.5,4.17,1111122 
ENP,ioos.station.NOAA.NDBC:LBRF1:1,2016-08-09T06:00:00Z,25.4840,-81.1330,1.5,4.0,11111222 
ENP,ioos.station.NOAA.NDBC:LBRF1:1,2016-08-09T07:00:00Z,25.4840,-81.1330,1.5,3.82,1111122 
ENP,ioos.station.NOAA.NDBC:LBRF1:1,2016-08-09T08:00:00Z,25.4840,-81.1330,1.5,3.72,1111122 
ENP,ioos.station.NOAA.NDBC:LBRF1:1,2016-08-09T09:00:00Z,25.4840,-81.1330,1.5,3.7,11111222 
ENP,ioos.station.NOAA.NDBC:LBRF1:1,2016-08-09T10:00:00Z,25.4840,-81.1330,1.5,3.75,1111122 
ENP,ioos.station.NOAA.NDBC:LBRF1:1,2016-08-09T11:00:00Z,25.4840,-81.1330,1.5,4.72,1111122 
ENP,ioos.station.NOAA.NDBC:LBRF1:1,2016-08-09T12:00:00Z,25.4840,-81.1330,1.5,9.59,1111122 
ENP,ioos.station.NOAA.NDBC:LBRF1:1,2016-08-09T13:00:00Z,25.4840,-81.1330,1.5,13.34,1111122 
ENP,ioos.station.NOAA.NDBC:LBRF1:1,2016-08-09T14:00:00Z,25.4840,-81.1330,1.5,14.6,1111122 
ENP,ioos.station.NOAA.NDBC:LBRF1:1,2016-08-09T15:00:00Z,25.4840,-81.1330,1.5,10.1,1111122 
ENP,ioos.station.NOAA.NDBC:LBRF1:1,2016-08-09T16:00:00Z,25.4840,-81.1330,1.5,7.34,1111122 
ENP,ioos.station.NOAA.NDBC:LBRF1:1,2016-08-09T17:00:00Z,25.4840,-81.1330,1.5,5.11,1111122 
ENP,ioos.station.NOAA.NDBC:LBRF1:1,2016-08-09T18:00:00Z,25.4840,-81.1330,1.5,4.24,1111122 
ENP,ioos.station.NOAA.NDBC:LBRF1:1,2016-08-09T19:00:00Z,25.4840,-81.1330,1.5,4.06,1111122 
ENP,ioos.station.NOAA.NDBC:LBRF1:1,2016-08-09T20:00:00Z,25.4840,-81.1330,1.5,3.89,1111122 
ENP,ioos.station.NOAA.NDBC:LBRF1:1,2016-08-09T21:00:00Z,25.4840,-81.1330,1.5,3.82,1111122 
ENP,ioos.station.NOAA.NDBC:LBRF1:1,2016-08-09T22:00:00Z,25.4840,-81.1330,1.5,3.91,1111122 
ENP,ioos.station.NOAA.NDBC:LBRF1:1,2016-08-09T23:00:00Z,25.4840,-81.1330,1.5,6.22,1111122 
ENP,ioos.station.NOAA.NDBC:LBRF1:1,2016-08-10T00:00:00Z,25.4840,-81.1330,1.5,8.77,1111122 
ENP,ioos.station.NOAA.NDBC:LBRF1:1,2016-08-10T02:00:00Z,25.4840,-81.1330,1.5,10.6,11111222 
ENP,ioos.station.NOAA.NDBC:LBRF1:1,2016-08-10T03:00:00Z,25.4840,-81.1330,1.5,6.31,1111122 
ENP,ioos.station.NOAA.NDBC:LBRF1:1,2016-08-10T05:00:00Z,25.4840,-81.1330,1.5,4.2,11111222 
ENP,ioos.station.NOAA.NDBC:LBRF1:1,2016-08-10T06:00:00Z,25.4840,-81.1330,1.5,3.97,1111122 
ENP,ioos.station.NOAA.NDBC:LBRF1:1,2016-08-10T07:00:00Z,25.4840,-81.1330,1.5,3.83,1111122 
ENP,ioos.station.NOAA.NDBC:LBRF1:1,2016-08-10T08:00:00Z,25.4840,-81.1330,1.5,3.75,1111122 
ENP,ioos.station.NOAA.NDBC:LBRF1:1,2016-08-10T09:00:00Z,25.4840,-81.1330,1.5,3.7,11111222 
ENP,ioos.station.NOAA.NDBC:LBRF1:1,2016-08-10T10:00:00Z,25.4840,-81.1330,1.5,3.71,1111122 
ENP,ioos.station.NOAA.NDBC:LBRF1:1,2016-08-10T11:00:00Z,25.4840,-81.1330,1.5,4.7,1111122 
ENP,ioos.station.NOAA.NDBC:LBRF1:1,2016-08-10T12:00:00Z,25.4840,-81.1330,1.5,6.92,1111122 
ENP,ioos.station.NOAA.NDBC:LBRF1:1,2016-08-10T13:00:00Z,25.4840,-81.1330,1.5,8.58,1111122 
ENP,ioos.station.NOAA.NDBC:LBRF1:1,2016-08-10T14:00:00Z,25.4840,-81.1330,1.5,11.06,1111122 
ENP,ioos.station.NOAA.NDBC:LBRF1:1,2016-08-10T15:00:00Z,25.4840,-81.1330,1.5,11.39,1111122 
ENP,ioos.station.NOAA.NDBC:LBRF1:1,2016-08-10T16:00:00Z,25.4840,-81.1330,1.5,8.12,1111122 
ENP,ioos.station.NOAA.NDBC:LBRF1:1,2016-08-10T17:00:00Z,25.4840,-81.1330,1.5,6.06,1111122 
ENP,ioos.station.NOAA.NDBC:LBRF1:1,2016-08-10T18:00:00Z,25.4840,-81.1330,1.5,4.3,1111122 
ENP,ioos.station.NOAA.NDBC:LBRF1:1,2016-08-10T19:00:00Z,25.4840,-81.1330,1.5,3.96,1111122 
ENP,ioos.station.NOAA.NDBC:LBRF1:1,2016-08-10T20:00:00Z,25.4840,-81.1330,1.5,3.7,1111122 
ENP,ioos.station.NOAA.NDBC:LBRF1:1,2016-08-10T21:00:00Z,25.4840,-81.1330,1.5,3.55,1111122 
ENP,ioos.station.NOAA.NDBC:LBRF1:1,2016-08-10T22:00:00Z,25.4840,-81.1330,1.5,3.45,1111122 
ENP,ioos.station.NOAA.NDBC:LBRF1:1,2016-08-10T23:00:00Z,25.4840,-81.1330,1.5,3.4,1111122 
ENP,ioos.station.NOAA.NDBC:LBRF1:1,2016-08-11T00:00:00Z,25.4840,-81.1330,1.5,3.4,1111122 
ENP,ioos.station.NOAA.NDBC:LBRF1:1,2016-08-11T02:00:00Z,25.4840,-81.1330,1.5,6.0,11111222 
ENP,ioos.station.NOAA.NDBC:LBRF1:1,2016-08-11T03:00:00Z,25.4840,-81.1330,1.5,7.13,1111122 
ENP,ioos.station.NOAA.NDBC:LBRF1:1,2016-08-11T05:00:00Z,25.4840,-81.1330,1.5,3.9,11111222 
ENP,ioos.station.NOAA.NDBC:LBRF1:1,2016-08-11T06:00:00Z,25.4840,-81.1330,1.5,3.62,1111122 
ENP,ioos.station.NOAA.NDBC:LBRF1:1,2016-08-11T07:00:00Z,25.4840,-81.1330,1.5,3.42,1111122 
ENP,ioos.station.NOAA.NDBC:LBRF1:1,2016-08-11T08:00:00Z,25.4840,-81.1330,1.5,3.27,1111122 
ENP,ioos.station.NOAA.NDBC:LBRF1:1,2016-08-11T09:00:00Z,25.4840,-81.1330,1.5,3.12,1111122 
ENP,ioos.station.NOAA.NDBC:LBRF1:1,2016-08-11T10:00:00Z,25.4840,-81.1330,1.5,2.99,1111122 
ENP,ioos.station.NOAA.NDBC:LBRF1:1,2016-08-11T11:00:00Z,25.4840,-81.1330,1.5,2.94,1111122 
ENP,ioos.station.NOAA.NDBC:LBRF1:1,2016-08-11T12:00:00Z,25.4840,-81.1330,1.5,4.43,1111122 
ENP,ioos.station.NOAA.NDBC:LBRF1:1,2016-08-11T13:00:00Z,25.4840,-81.1330,1.5,8.58,1111122 
ENP,ioos.station.NOAA.NDBC:LBRF1:1,2016-08-11T14:00:00Z,25.4840,-81.1330,1.5,9.84,1111122 
ENP,ioos.station.NOAA.NDBC:LBRF1:1,2016-08-11T15:00:00Z,25.4840,-81.1330,1.5,10.29,1111122 
ENP,ioos.station.NOAA.NDBC:LBRF1:1,2016-08-11T16:00:00Z,25.4840,-81.1330,1.5,5.71,1111122 
ENP,ioos.station.NOAA.NDBC:LBRF1:1,2016-08-11T17:00:00Z,25.4840,-81.1330,1.5,3.72,1111122 
ENP,ioos.station.NOAA.NDBC:LBRF1:1,2016-08-11T18:00:00Z,25.4840,-81.1330,1.5,3.16,1111122 
ENP,ioos.station.NOAA.NDBC:LBRF1:1,2016-08-11T19:00:00Z,25.4840,-81.1330,1.5,2.93,1111122 
ENP,ioos.station.NOAA.NDBC:LBRF1:1,2016-08-11T20:00:00Z,25.4840,-81.1330,1.5,2.83,1111122 
ENP,ioos.station.NOAA.NDBC:LBRF1:1,2016-08-11T21:00:00Z,25.4840,-81.1330,1.5,2.75,1111122 
ENP,ioos.station.NOAA.NDBC:LBRF1:1,2016-08-11T22:00:00Z,25.4840,-81.1330,1.5,2.72,1111122 
ENP,ioos.station.NOAA.NDBC:LBRF1:1,2016-08-11T23:00:00Z,25.4840,-81.1330,1.5,2.7,1111122 
ENP,ioos.station.NOAA.NDBC:LBRF1:1,2016-08-12T00:00:00Z,25.4840,-81.1330,1.5,2.82,1111122 
ENP,ioos.station.NOAA.NDBC:LBRF1:1,2016-08-12T02:00:00Z,25.4840,-81.1330,1.5,7.3,11111222 
ENP,ioos.station.NOAA.NDBC:LBRF1:1,2016-08-12T03:00:00Z,25.4840,-81.1330,1.5,8.89,1111122 
ENP,ioos.station.NOAA.NDBC:LBRF1:1,2016-08-12T05:00:00Z,25.4840,-81.1330,1.5,10.4,11111222 
ENP,ioos.station.NOAA.NDBC:LBRF1:1,2016-08-12T06:00:00Z,25.4840,-81.1330,1.5,6.86,1111122 
ENP,ioos.station.NOAA.NDBC:LBRF1:1,2016-08-12T07:00:00Z,25.4840,-81.1330,1.5,5.58,1111122 
ENP,ioos.station.NOAA.NDBC:LBRF1:1,2016-08-12T08:00:00Z,25.4840,-81.1330,1.5,4.19,1111122 
ENP,ioos.station.NOAA.NDBC:LBRF1:1,2016-08-12T09:00:00Z,25.4840,-81.1330,1.5,3.2,11111222 
ENP,ioos.station.NOAA.NDBC:LBRF1:1,2016-08-12T10:00:00Z,25.4840,-81.1330,1.5,2.94,1111122 
ENP,ioos.station.NOAA.NDBC:LBRF1:1,2016-08-12T11:00:00Z,25.4840,-81.1330,1.5,2.87,1111122 
ENP,ioos.station.NOAA.NDBC:LBRF1:1,2016-08-12T12:00:00Z,25.4840,-81.1330,1.5,9.21,1111122 
ENP,ioos.station.NOAA.NDBC:LBRF1:1,2016-08-12T13:00:00Z,25.4840,-81.1330,1.5,12.04,1111122 
ENP,ioos.station.NOAA.NDBC:LBRF1:1,2016-08-12T14:00:00Z,25.4840,-81.1330,1.5,13.08,1111122 
ENP,ioos.station.NOAA.NDBC:LBRF1:1,2016-08-12T15:00:00Z,25.4840,-81.1330,1.5,13.74,1111122 
ENP,ioos.station.NOAA.NDBC:LBRF1:1,2016-08-12T16:00:00Z,25.4840,-81.1330,1.5,16.53,1111122 
ENP,ioos.station.NOAA.NDBC:LBRF1:1,2016-08-12T17:00:00Z,25.4840,-81.1330,1.5,15.53,1111122 
ENP,ioos.station.NOAA.NDBC:LBRF1:1,2016-08-12T18:00:00Z,25.4840,-81.1330,1.5,9.46,1111122 
ENP,ioos.station.NOAA.NDBC:LBRF1:1,2016-08-12T19:00:00Z,25.4840,-81.1330,1.5,8.04,1111122 
ENP,ioos.station.NOAA.NDBC:LBRF1:1,2016-08-12T20:00:00Z,25.4840,-81.1330,1.5,3.86,1111122 
ENP,ioos.station.NOAA.NDBC:LBRF1:1,2016-08-12T21:00:00Z,25.4840,-81.1330,1.5,2.97,1111122 
ENP,ioos.station.NOAA.NDBC:LBRF1:1,2016-08-12T22:00:00Z,25.4840,-81.1330,1.5,2.75,1111122 
ENP,ioos.station.NOAA.NDBC:LBRF1:1,2016-08-12T23:00:00Z,25.4840,-81.1330,1.5,2.66,1111122 
ENP,ioos.station.NOAA.NDBC:LBRF1:1,2016-08-13T00:00:00Z,25.4840,-81.1330,1.5,2.59,1111122 
ENP,ioos.station.NOAA.NDBC:LBRF1:1,2016-08-13T02:00:00Z,25.4840,-81.1330,1.5,4.5,11111222 
ENP,ioos.station.NOAA.NDBC:LBRF1:1,2016-08-13T03:00:00Z,25.4840,-81.1330,1.5,7.6,1111122 
ENP,ioos.station.NOAA.NDBC:LBRF1:1,2016-08-13T05:00:00Z,25.4840,-81.1330,1.5,12.2,11111222 
ENP,ioos.station.NOAA.NDBC:LBRF1:1,2016-08-13T06:00:00Z,25.4840,-81.1330,1.5,13.21,1111122 
ENP,ioos.station.NOAA.NDBC:LBRF1:1,2016-08-13T07:00:00Z,25.4840,-81.1330,1.5,11.58,1111122 
ENP,ioos.station.NOAA.NDBC:LBRF1:1,2016-08-13T08:00:00Z,25.4840,-81.1330,1.5,7.79,1111122 
ENP,ioos.station.NOAA.NDBC:LBRF1:1,2016-08-13T09:00:00Z,25.4840,-81.1330,1.5,5.7,11111222 